Weather History for Fosston, MN

Change the Weather History Date:

Wednesday, November 30, 2011

  Actual Average Record
Temperature  
Mean Temperature 26 °F -  
Max Temperature 30 °F 28 °F 47 °F (1962)
Min Temperature 23 °F 10 °F -56 °F (2001)
Degree Days  
Heating Degree Days 38    
Moisture  
Dew Point 22 °F    
Average Humidity 79    
Maximum Humidity 86    
Minimum Humidity 69    
Precipitation  
Precipitation 0.00 in - - ()
Sea Level Pressure  
Sea Level Pressure 29.92 in    
Wind  
Wind Speed 3 mph (North)    
Max Wind Speed 13 mph    
Max Gust Speed -    
Visibility 10 miles    
Events Snow    
Averages and records for this station are not official NWS values.
T = Trace of Precipitation, MM = Missing Value Source: NWS Daily Summary

Daily Weather History Graph

Daily Weather History Graph

Search for Another Location

Airport:

Trip Planner

Search our weather history database for the weather conditions in past years. The results will help you decide how hot, cold, wet, or windy it might be!

Date:

Astronomy

Nov. 30, 2011 Rise Set
Actual Time 7:48 AM CST 4:34 PM CST
Civil Twilight 7:13 AM CST 5:09 PM CST
Nautical Twilight 6:35 AM CST 5:47 PM CST
Astronomical Twilight 5:58 AM CST 6:24 PM CST
Moon 11:54 AM CST (11/30) 10:47 PM CST (11/30)
Length of Visible Light 9h 55m
Length of Day
8h 45m
Waxing Crescent, 34% of the Moon is Illuminated
Nov 30
Waxing Crescent
Dec 2
First Quarter
Dec 10
Full
Dec 17
Last Quarter
Dec 24
New

Hourly Weather History & Observations

Time (CST) Temp. Windchill Dew Point Humidity Pressure Visibility Wind Dir Wind Speed Gust Speed Precip Events Conditions
12:15 AM 28.4 °F 23.3 °F 19.4 °F 69% 29.91 in 10.0 mi SSW 4.6 mph - N/A   Clear
12:35 AM 26.6 °F 15.7 °F 19.4 °F 74% 29.90 in 10.0 mi SSW 12.7 mph - N/A   Clear
12:55 AM 26.6 °F - 19.4 °F 74% 29.90 in 10.0 mi Calm Calm - N/A   Clear
1:15 AM 24.8 °F 16.1 °F 17.6 °F 74% 29.90 in 10.0 mi South 8.1 mph - N/A   Clear
1:35 AM 24.8 °F - 17.6 °F 74% 29.89 in 10.0 mi Calm Calm - N/A   Clear
1:55 AM 24.8 °F 16.9 °F 17.6 °F 74% 29.89 in 10.0 mi South 6.9 mph - N/A   Clear
2:35 AM 24.8 °F - 19.4 °F 80% 29.88 in 10.0 mi Calm Calm - N/A   Clear
2:55 AM 24.8 °F - 17.6 °F 74% 29.87 in 10.0 mi Calm Calm - N/A   Clear
3:15 AM 23.0 °F - 17.6 °F 80% 29.87 in 10.0 mi Calm Calm - N/A   Clear
3:35 AM 24.8 °F - 19.4 °F 80% 29.87 in 10.0 mi Calm Calm - N/A   Clear
3:55 AM 24.8 °F - 19.4 °F 80% 29.87 in 10.0 mi Calm Calm - N/A   Clear
4:15 AM 24.8 °F - 19.4 °F 80% 29.86 in 10.0 mi Calm Calm - N/A   Clear
4:35 AM 24.8 °F - 19.4 °F 80% 29.86 in 10.0 mi Calm Calm - N/A   Clear
4:55 AM 24.8 °F - 19.4 °F 80% 29.86 in 10.0 mi Calm Calm - N/A   Clear
5:15 AM 24.8 °F - 19.4 °F 80% 29.86 in 10.0 mi Calm Calm - N/A   Mostly Cloudy
5:35 AM 24.8 °F - 19.4 °F 80% 29.86 in 10.0 mi Calm Calm - N/A   Mostly Cloudy
5:55 AM 24.8 °F - 19.4 °F 80% 29.85 in 10.0 mi Calm Calm - N/A   Scattered Clouds
6:35 AM 24.8 °F - 21.2 °F 86% 29.84 in 10.0 mi Calm Calm - N/A   Scattered Clouds
6:55 AM 26.6 °F - 21.2 °F 80% 29.84 in 10.0 mi Calm Calm - N/A   Mostly Cloudy
7:15 AM 26.6 °F - 21.2 °F 80% 29.84 in 10.0 mi Calm Calm - N/A   Mostly Cloudy
7:35 AM 26.6 °F - 21.2 °F 80% 29.84 in 10.0 mi Calm Calm - N/A   Overcast
7:55 AM 26.6 °F - 21.2 °F 80% 29.86 in 10.0 mi Calm Calm - N/A   Overcast
8:16 AM 26.6 °F - 21.2 °F 80% 29.87 in 10.0 mi Calm Calm - N/A   Overcast
8:35 AM 26.6 °F - 21.2 °F 80% 29.88 in 10.0 mi Calm Calm - N/A   Overcast
8:55 AM 26.6 °F - 21.2 °F 80% 29.88 in 10.0 mi Calm Calm - N/A   Overcast
9:15 AM 26.6 °F - 21.2 °F 80% 29.88 in 10.0 mi Calm Calm - N/A   Mostly Cloudy
9:35 AM 26.6 °F - 21.2 °F 80% 29.88 in 10.0 mi Calm Calm - N/A   Scattered Clouds
9:55 AM 26.6 °F - 21.2 °F 80% 29.89 in 10.0 mi Calm Calm - N/A   Mostly Cloudy
10:15 AM 28.4 °F - 21.2 °F 74% 29.90 in 10.0 mi Calm Calm - N/A   Mostly Cloudy
10:35 AM 28.4 °F - 21.2 °F 74% 29.90 in 10.0 mi Calm Calm - N/A   Scattered Clouds
10:55 AM 28.4 °F - 21.2 °F 74% 29.90 in 10.0 mi Calm Calm - N/A   Clear
11:15 AM 30.2 °F - 21.2 °F 69% 29.90 in 10.0 mi Calm Calm - N/A   Scattered Clouds
11:35 AM 30.2 °F - 23.0 °F 75% 29.89 in 10.0 mi Calm Calm - N/A   Scattered Clouds
11:55 AM 30.2 °F - 24.8 °F 80% 29.89 in 10.0 mi Calm Calm - N/A   Clear
12:16 PM 30.2 °F - 23.0 °F 75% 29.90 in 10.0 mi Calm Calm - N/A   Clear
12:35 PM 30.2 °F 26.7 °F 21.2 °F 69% 29.89 in 10.0 mi North 3.5 mph - N/A   Scattered Clouds
12:55 PM 30.2 °F - 23.0 °F 75% 29.90 in 10.0 mi Calm Calm - N/A   Mostly Cloudy
1:15 PM 30.2 °F - 23.0 °F 75% 29.90 in 10.0 mi Calm Calm - N/A   Mostly Cloudy
1:35 PM 30.2 °F - 24.8 °F 80% 29.90 in 10.0 mi Calm Calm - N/A   Scattered Clouds
1:55 PM 30.2 °F 21.9 °F 24.8 °F 80% 29.90 in 10.0 mi North 9.2 mph - N/A   Scattered Clouds
2:15 PM 30.2 °F - 23.0 °F 75% 29.90 in 10.0 mi Calm Calm - N/A   Mostly Cloudy
2:35 PM 30.2 °F 25.4 °F 23.0 °F 75% 29.92 in 10.0 mi NNE 4.6 mph - N/A   Mostly Cloudy
2:55 PM 30.2 °F - 24.8 °F 80% 29.93 in 10.0 mi Calm Calm - N/A   Overcast
3:15 PM 30.2 °F 20.8 °F 24.8 °F 80% 29.93 in 10.0 mi North 11.5 mph - N/A   Overcast
3:35 PM 30.2 °F 21.3 °F 24.8 °F 80% 29.94 in 10.0 mi North 10.4 mph - N/A Snow Light Snow
3:55 PM 30.2 °F 20.8 °F 24.8 °F 80% 29.95 in 10.0 mi North 11.5 mph - N/A Snow Light Snow
4:16 PM 30.2 °F 20.8 °F 24.8 °F 80% 29.97 in 10.0 mi North 11.5 mph - N/A   Mostly Cloudy
4:35 PM 30.2 °F - 23.0 °F 75% 29.97 in 10.0 mi Calm Calm - N/A   Overcast
5:15 PM 30.2 °F 21.3 °F 24.8 °F 80% 30.00 in 10.0 mi North 10.4 mph - N/A   Overcast
5:35 PM 30.2 °F 22.6 °F 24.8 °F 80% 30.01 in 10.0 mi North 8.1 mph - N/A   Overcast
5:55 PM 30.2 °F 21.3 °F 24.8 °F 80% 30.02 in 10.0 mi North 10.4 mph - N/A   Overcast
6:15 PM 28.4 °F 18.5 °F 24.8 °F 86% 30.04 in 10.0 mi North 11.5 mph - N/A   Overcast
6:35 PM 28.4 °F 18.5 °F 24.8 °F 86% 30.05 in 10.0 mi North 11.5 mph - N/A Snow Light Snow
6:55 PM 28.4 °F 19.7 °F 24.8 °F 86% 30.06 in 7.0 mi North 9.2 mph - N/A Snow Light Snow
7:16 PM 28.4 °F 19.7 °F 24.8 °F 86% 30.07 in 4.0 mi North 9.2 mph - N/A Snow Light Snow
7:35 PM 28.4 °F 19.7 °F 24.8 °F 86% 30.08 in 10.0 mi North 9.2 mph - N/A   Overcast
8:14 PM 28.4 °F 18.0 °F 23.0 °F 80% 30.09 in 10.0 mi North 12.7 mph - N/A   Overcast
8:35 PM 26.6 °F 15.7 °F 23.0 °F 86% 30.11 in 10.0 mi North 12.7 mph - N/A   Overcast
8:55 PM 26.6 °F 14.7 °F 21.2 °F 80% 30.12 in 10.0 mi North 15.0 mph 19.6 mph N/A   Overcast
9:15 PM 26.6 °F 15.7 °F 21.2 °F 80% 30.13 in 10.0 mi North 12.7 mph - N/A   Overcast
9:35 PM 26.6 °F 16.2 °F 21.2 °F 80% 30.15 in 10.0 mi North 11.5 mph - N/A   Overcast
9:55 PM 26.6 °F 16.8 °F 21.2 °F 80% 30.16 in 10.0 mi North 10.4 mph - N/A   Overcast
10:14 PM 24.8 °F 14.0 °F 19.4 °F 80% 30.17 in 10.0 mi North 11.5 mph - N/A   Mostly Cloudy
10:35 PM 24.8 °F 14.0 °F 19.4 °F 80% 30.19 in 10.0 mi North 11.5 mph - N/A   Scattered Clouds
10:55 PM 24.8 °F 14.6 °F 19.4 °F 80% 30.20 in 10.0 mi North 10.4 mph - N/A   Clear
11:15 PM 23.0 °F 11.7 °F 17.6 °F 80% 30.21 in 10.0 mi North 11.5 mph - N/A   Scattered Clouds
11:35 PM 23.0 °F 10.1 °F 19.4 °F 86% 30.22 in 10.0 mi North 15.0 mph - N/A   Overcast
11:55 PM 23.0 °F 10.6 °F 17.6 °F 80% 30.23 in 10.0 mi North 13.8 mph - N/A   Overcast